• In Deutschland
  • Länderverzeichnis
  • Für 7 Tage
  • Wassertemperatur
  • Satellitenkarten
  • Wetterkarte
  • Widgets
  • user-avatar
    Anmelden

    Stündliche Wetter Bad Hersfeld

    Heute, 14 Dezember, Donnerstag

    Zeit Temperatur Niederschläge Wind Luftdruck Luftfeuchtigkeit
    00:00 +2°C° 0,7 mm 7 m/S 720 mmHg 88%
    01:00 +2°C° 0 mm 6 m/S 719 mmHg 86%
    02:00 +2°C° 0,3 mm 6 m/S 719 mmHg 87%
    03:00 +2°C° 0,3 mm 5 m/S 719 mmHg 87%
    04:00 +1°C° 0,3 mm 5 m/S 719 mmHg 87%
    05:00 +1°C° 0,3 mm 6 m/S 719 mmHg 85%
    06:00 0°C° 0,3 mm 7 m/S 719 mmHg 82%
    07:00 -1°C° 0 mm 8 m/S 720 mmHg 77%
    08:00 0°C° 0,2 mm 8 m/S 721 mmHg 75%
    09:00 0°C° 0,2 mm 8 m/S 722 mmHg 74%
    10:00 0°C° 0,2 mm 9 m/S 722 mmHg 72%
    11:00 0°C° 0,1 mm 8 m/S 723 mmHg 73%
    12:00 +2°C° 0,1 mm 7 m/S 723 mmHg 73%
    13:00 +2°C° 0,1 mm 7 m/S 723 mmHg 74%
    14:00 +2°C° 0,5 mm 6 m/S 723 mmHg 77%
    15:00 +2°C° 0,5 mm 6 m/S 722 mmHg 81%
    16:00 +1°C° 0,5 mm 5 m/S 722 mmHg 85%
    17:00 +1°C° 0,6 mm 5 m/S 722 mmHg 86%
    18:00 +1°C° 0,6 mm 4 m/S 722 mmHg 88%
    19:00 +1°C° 0,6 mm 4 m/S 721 mmHg 90%
    20:00 +1°C° 0,1 mm 4 m/S 721 mmHg 91%
    21:00 +1°C° 0,1 mm 3 m/S 721 mmHg 92%
    22:00 +1°C° 0,1 mm 3 m/S 721 mmHg 93%
    23:00 +1°C° 0,1 mm 3 m/S 721 mmHg 94%

    Morgen, 15 Dezember, Freitag

    Zeit Temperatur Niederschläge Wind Luftdruck Luftfeuchtigkeit
    00:00 +2°C° 0,1 mm 2 m/S 720 mmHg 95%
    01:00 +2°C° 0,1 mm 2 m/S 720 mmHg 96%
    02:00 +2°C° 0,2 mm 2 m/S 720 mmHg 96%
    03:00 +2°C° 0,2 mm 2 m/S 720 mmHg 96%
    04:00 +2°C° 0,2 mm 2 m/S 720 mmHg 96%
    05:00 +1°C° 0,2 mm 2 m/S 721 mmHg 95%
    06:00 0°C° 0,2 mm 3 m/S 722 mmHg 95%
    07:00 0°C° 0,2 mm 3 m/S 722 mmHg 94%
    08:00 0°C° 0 mm 3 m/S 723 mmHg 93%
    09:00 0°C° 0 mm 3 m/S 723 mmHg 92%
    10:00 -1°C° 0 mm 4 m/S 724 mmHg 91%
    11:00 0°C° 0,1 mm 4 m/S 724 mmHg 89%
    12:00 0°C° 0,1 mm 4 m/S 724 mmHg 88%
    13:00 +2°C° 0,1 mm 3 m/S 724 mmHg 87%
    14:00 +2°C° 0,2 mm 3 m/S 724 mmHg 88%
    15:00 +1°C° 0,2 mm 3 m/S 725 mmHg 90%
    16:00 +2°C° 0,2 mm 2 m/S 725 mmHg 91%
    17:00 +2°C° 0,2 mm 2 m/S 725 mmHg 92%
    18:00 +2°C° 0,2 mm 2 m/S 726 mmHg 92%
    19:00 +1°C° 0,2 mm 2 m/S 726 mmHg 92%
    20:00 +1°C° 0,1 mm 2 m/S 726 mmHg 93%
    21:00 +1°C° 0,1 mm 2 m/S 727 mmHg 93%
    22:00 -1°C° 0,1 mm 2 m/S 727 mmHg 94%
    23:00 -1°C° 0 mm 2 m/S 727 mmHg 94%

    übermorgen, 16 Dezember, Samstag

    Zeit Temperatur Niederschläge Wind Luftdruck Luftfeuchtigkeit
    00:00 +1°C° 0 mm 1 m/S 728 mmHg 95%
    01:00 +1°C° 0 mm 1 m/S 728 mmHg 96%
    02:00 +1°C° 0 mm 1 m/S 729 mmHg 95%
    03:00 +2°C° 0 mm 1 m/S 729 mmHg 95%
    04:00 +2°C° 0 mm 1 m/S 729 mmHg 95%
    05:00 +2°C° 0 mm 1 m/S 730 mmHg 95%
    06:00 +1°C° 0 mm 2 m/S 730 mmHg 95%
    07:00 +1°C° 0 mm 2 m/S 731 mmHg 95%
    08:00 +1°C° 0 mm 2 m/S 731 mmHg 94%
    09:00 +1°C° 0 mm 2 m/S 732 mmHg 93%
    10:00 +1°C° 0 mm 3 m/S 732 mmHg 92%
    11:00 +1°C° 0,1 mm 3 m/S 733 mmHg 89%
    12:00 0°C° 0,1 mm 4 m/S 733 mmHg 87%
    13:00 +1°C° 0,1 mm 4 m/S 733 mmHg 84%
    14:00 0°C° 0,1 mm 4 m/S 734 mmHg 85%
    15:00 +1°C° 0,1 mm 3 m/S 734 mmHg 86%
    16:00 0°C° 0,1 mm 3 m/S 734 mmHg 87%
    17:00 0°C° 0 mm 3 m/S 735 mmHg 88%
    18:00 -1°C° 0 mm 3 m/S 735 mmHg 90%
    19:00 -1°C° 0 mm 3 m/S 736 mmHg 92%
    20:00 -1°C° 0 mm 3 m/S 737 mmHg 92%
    21:00 -2°C° 0 mm 3 m/S 737 mmHg 92%
    22:00 -2°C° 0 mm 3 m/S 738 mmHg 92%
    23:00 -2°C° 0 mm 3 m/S 738 mmHg 92%

    17 Dezember, Sonntag

    Zeit Temperatur Niederschläge Wind Luftdruck Luftfeuchtigkeit
    00:00 -2°C° 0 mm 3 m/S 739 mmHg 92%
    01:00 -2°C° 0 mm 3 m/S 739 mmHg 93%
    02:00 -2°C° 0 mm 3 m/S 739 mmHg 92%
    03:00 -2°C° 0 mm 3 m/S 740 mmHg 92%
    04:00 -2°C° 0 mm 3 m/S 740 mmHg 92%
    05:00 -2°C° 0 mm 3 m/S 740 mmHg 92%
    06:00 -2°C° 0 mm 3 m/S 741 mmHg 92%
    07:00 -2°C° 0 mm 3 m/S 742 mmHg 92%
    08:00 -2°C° 0 mm 3 m/S 742 mmHg 90%
    09:00 -2°C° 0 mm 4 m/S 743 mmHg 89%
    10:00 -2°C° 0 mm 4 m/S 743 mmHg 88%
    11:00 -1°C° 0 mm 4 m/S 743 mmHg 86%
    12:00 0°C° 0 mm 4 m/S 744 mmHg 84%
    13:00 0°C° 0 mm 4 m/S 744 mmHg 81%
    14:00 0°C° 0,1 mm 4 m/S 744 mmHg 84%
    15:00 0°C° 0,1 mm 4 m/S 744 mmHg 86%
    16:00 0°C° 0,1 mm 3 m/S 745 mmHg 88%
    17:00 0°C° 0,1 mm 3 m/S 745 mmHg 89%
    18:00 0°C° 0,1 mm 3 m/S 745 mmHg 90%
    19:00 0°C° 0,1 mm 3 m/S 745 mmHg 91%
    20:00 0°C° 0 mm 3 m/S 745 mmHg 91%
    21:00 -1°C° 0 mm 4 m/S 746 mmHg 92%
    22:00 -1°C° 0 mm 4 m/S 746 mmHg 92%
    23:00 -1°C° 0,1 mm 4 m/S 745 mmHg 91%

    18 Dezember, Montag

    Zeit Temperatur Niederschläge Wind Luftdruck Luftfeuchtigkeit
    00:00 -1°C° 0,1 mm 5 m/S 745 mmHg 90%
    01:00 -1°C° 0,1 mm 5 m/S 745 mmHg 90%
    02:00 -1°C° 0,5 mm 5 m/S 744 mmHg 90%
    03:00 -1°C° 0,5 mm 6 m/S 743 mmHg 90%
    04:00 -1°C° 0,5 mm 7 m/S 742 mmHg 90%
    05:00 0°C° 1,8 mm 7 m/S 741 mmHg 90%
    06:00 +2°C° 1,8 mm 7 m/S 740 mmHg 91%
    07:00 +2°C° 1,8 mm 7 m/S 739 mmHg 91%
    08:00 +3°C° 1,5 mm 6 m/S 740 mmHg 92%
    09:00 +3°C° 1,5 mm 6 m/S 740 mmHg 93%
    10:00 +3°C° 1,5 mm 5 m/S 740 mmHg 94%
    11:00 +3°C° 0,1 mm 5 m/S 740 mmHg 91%
    12:00 +3°C° 0,1 mm 5 m/S 740 mmHg 89%
    13:00 +3°C° 0,1 mm 5 m/S 740 mmHg 87%
    14:00 +2°C° 0,1 mm 5 m/S 741 mmHg 87%
    15:00 +2°C° 0,1 mm 5 m/S 741 mmHg 88%
    16:00 +2°C° 0,1 mm 5 m/S 741 mmHg 89%
    17:00 +3°C° 0 mm 4 m/S 742 mmHg 89%
    18:00 +1°C° 0 mm 4 m/S 743 mmHg 90%
    19:00 +1°C° 0 mm 4 m/S 743 mmHg 90%
    20:00 +1°C° 0 mm 4 m/S 744 mmHg 91%
    21:00 +2°C° 0 mm 3 m/S 745 mmHg 92%
    22:00 +2°C° 0 mm 3 m/S 746 mmHg 93%
    23:00 +1°C° 0 mm 3 m/S 746 mmHg 94%

    19 Dezember, Dienstag

    Zeit Temperatur Niederschläge Wind Luftdruck Luftfeuchtigkeit
    00:00 +2°C° 0 mm 2 m/S 747 mmHg 95%
    01:00 +1°C° 0 mm 2 m/S 747 mmHg 95%
    02:00 +1°C° 0 mm 2 m/S 748 mmHg 95%
    03:00 +2°C° 0 mm 1 m/S 748 mmHg 96%
    04:00 +2°C° 0 mm 1 m/S 749 mmHg 96%
    05:00 +2°C° 0 mm 1 m/S 749 mmHg 96%
    06:00 +2°C° 0 mm 1 m/S 750 mmHg 96%
    07:00 +1°C° 0 mm 1 m/S 750 mmHg 96%
    08:00 +2°C° 0 mm 1 m/S 750 mmHg 95%
    09:00 +1°C° 0 mm 0 m/S 751 mmHg 94%
    10:00 +1°C° 0 mm 0 m/S 751 mmHg 93%
    11:00 +1°C° 0 mm 0 m/S 751 mmHg 91%
    12:00 +2°C° 0 mm 0 m/S 751 mmHg 89%
    13:00 +2°C° 0 mm 0 m/S 751 mmHg 87%
    14:00 +3°C° 0 mm 1 m/S 751 mmHg 88%
    15:00 +3°C° 0 mm 1 m/S 750 mmHg 89%
    16:00 +2°C° 0 mm 1 m/S 750 mmHg 90%
    17:00 +2°C° 0 mm 1 m/S 750 mmHg 91%
    18:00 +2°C° 0 mm 1 m/S 750 mmHg 92%
    19:00 +1°C° 0 mm 1 m/S 751 mmHg 92%
    20:00 +1°C° 0 mm 1 m/S 751 mmHg 93%
    21:00 +1°C° 0 mm 1 m/S 751 mmHg 93%
    22:00 +1°C° 0 mm 1 m/S 751 mmHg 94%
    23:00 +1°C° 0 mm 1 m/S 751 mmHg 94%
    Mehr zeigen